OpenBCM V1.08-3-g9b42 (Linux)

Packet Radio Mailbox

OK0NBR

[Sao_Jose_dos_Campo]

 Login: GUEST





  
I0OJJ  > KEPS     16.10.25 22:33l 316 Lines 15004 Bytes #164 (0) @ AMSAT
BID : ORB25290.1
Read: GUEST
Subj: 2Line Orbital Elements 25290.AMSAT
Path: OK0NBR<IW0QNL<HB9ON<IK7NXU<IK6IHL<IZ3LSV<DB0ERF<DK0WUE<PI8ZTM<VK2IO<
      VK2RZ<IR0AAB<I0OJJ
Sent: 251017/0021z @:I0OJJ.ITA.EU [Rome] obcm1.08-11-2-gbfe9
From: I0OJJ @ I0OJJ.ITA.EU (Gustavo)
To:   KEPS @ AMSAT
X-Info: This message was generated automatically


QST de W1STR

AMSAT Orbital Elements for Amateur Satellites in TLE Format
From Orbital Analysis Office
New England Sci-Tech STEM Education Center
Natick MA October 17, 2025
To all radio amateurs


These element sets describe the orbits of various satellites 
in use by the amateur radio community. For details see:
www.amsat.org/keplerian-elements-formats/

A daily update of element sets is available at:
www.amsat.org/tle/daily-bulletin.txt
or without bulletin text:
www.amsat.org/tle/dailytle.txt


AO-07
1 07530U 74089B   25289.60662248 -.00000047  00000-0 -23562-5 0  9999
2 07530 101.9992 295.2657 0011956 235.6226 216.8039 12.53692402329997
UO-11
1 14781U 84021B   25289.50956647  .00002708  00000-0  28759-3 0  9995
2 14781  97.7716 253.4673 0006013 271.3084  88.7445 14.89846590220830
AO-27
1 22825U 93061C   25289.44810589  .00000162  00000-0  79033-4 0  9998
2 22825  98.7226 351.5573 0009520  95.4164 264.8104 14.30845476672146
FO-29
1 24278U 96046B   25289.47404294  .00000002  00000-0  38613-4 0  9995
2 24278  98.5525 166.2800 0350159   8.7438 351.9593 13.53256813440207
NOAA-15
1 25338U 98030A   25289.61588374  .00000229  00000-0  11176-3 0  9991
2 25338  98.5287 311.6054 0009921 347.8292  12.2648 14.27036337426559
GO-32
1 25397U 98043D   25289.59665955  .00000157  00000-0  87894-4 0  9999
2 25397  98.9868 271.5034 0001351 150.8951 209.2302 14.24352725416652
ISS
1 25544U 98067A   25289.52506873  .00011658  00000-0  21824-3 0  9993
2 25544  51.6331  65.7261 0004216 297.7924  62.2637 15.49156388533985
NO-44
1 26931U 01043C   25289.59765593  .00000222  00000-0  11410-3 0  9990
2 26931  67.0495 154.2459 0007117 273.4569  86.5718 14.31806279255576
SO-50
1 27607U 02058C   25289.05152463  .00002183  00000-0  28134-3 0  9994
2 27607  64.5529 163.8508 0068462 307.3952  52.0933 14.82086912228264
CO-55
1 27844U 03031E   25289.61121576  .00000521  00000-0  24518-3 0  9998
2 27844  98.6789 296.2454 0009807 166.4965 193.6478 14.24107477157005
CO-57
1 27848U 03031J   25289.47989519  .00000432  00000-0  20960-3 0  9993
2 27848  98.6817 296.0227 0009351 184.4931 175.6165 14.23426130156702
RS-22
1 27939U 03042A   25289.64898758  .00001916  00000-0  30835-3 0  9999
2 27939  98.3378 102.3415 0010735 325.9305 124.1184 14.72723229179691
CO-58
1 28895U 05043F   25289.67138119  .00002921  00000-0  47801-3 0  9993
2 28895  98.2678  75.8138 0013355 256.8608 103.1108 14.71542389 65928
CO-65
1 32785U 08021C   25289.65056241  .00007789  00000-0  53794-3 0  9993
2 32785  97.8017 261.9966 0011379 126.7372 233.4901 15.05991567948491
CO-66
1 32791U 08021J   25289.57943841  .00019731  00000-0  85196-3 0  9993
2 32791  97.7406 272.8899 0006403  85.8323 274.3644 15.22530640950095
RS-30
1 32953U 08025A   25289.57073572  .00000023  00000-0  91456-4 0  9993
2 32953  82.5022 146.9832 0019721 121.8280 238.4723 12.43169357789428
NOAA-19
1 33591U 09005A   25289.60945450  .00000087  00000-0  70446-4 0  9994
2 33591  98.9841 354.9565 0013704   3.7341 356.3931 14.13418284860079
SRMSAT
1 37841U 11058D   25288.83716199  .00000522  00000-0  13994-3 0  9995
2 37841  19.9713  98.3809 0011801  35.7874  16.4418 14.11481236723251
ZACUBE-1
1 39417U 13066B   25289.43719528  .00009264  00000-0  77249-3 0  9998
2 39417  97.7962 245.9671 0042109 345.0077  14.9893 14.98127840644194
Delfi-N3xt
1 39428U 13066N   25289.57056574  .00011425  00000-0  11061-2 0  9991
2 39428  97.8289 205.8809 0079590 296.1096  63.1948 14.90516919638278
GOMX-1
1 39430U 13066Q   25289.45766872  .00003237  00000-0  49983-3 0  9997
2 39430  97.6669 140.1638 0132021 139.2203 221.8976 14.68218875634138
LO-74
1 39440U 13066AA  25289.58070365  .00005873  00000-0  57709-3 0  9990
2 39440  97.8604 233.3968 0062383 113.3028 247.4772 14.91064301640653
AO-73
1 39444U 13066AE  25289.61975081  .00011787  00000-0  83110-3 0  9993
2 39444  97.7980 252.2841 0038073 313.6440  46.1631 15.04551459642970
DTUSAT-2
1 40030U 14033W   25289.58763535  .00010272  00000-0  62959-3 0  9992
2 40030  98.0702 267.9140 0008483 359.9885   0.1341 15.10346266615852
EO-80
1 40032U 14033Y   25289.60091479  .00010374  00000-0  63457-3 0  9995
2 40032  98.0586 267.4029 0005906 291.4184  68.6414 15.10430132615838
LILACSAT-2
1 40908U 15049K   25289.62255692  .00017146  00000-0  39819-3 0  9995
2 40908  97.4997 313.3232 0010210  63.5179 296.7114 15.42379379558097
IO-86
1 40931U 15052B   25151.18580175  .00001241  00000-0  78118-4 0  9996
2 40931   6.0006  24.0987 0012733 338.8432  21.1169 14.78805930523159
Horyu-4
1 41340U 16012D   25289.20973072  .00039119  00000-0  81553-3 0  9996
2 41340  30.9957 343.0426 0003164 333.4550  26.5935 15.44316549532637
Lapan A3
1 41603U 16040E   25289.64452513  .00004905  00000-0  16649-3 0  9998
2 41603  97.1430 289.3040 0011391 158.1804 201.9925 15.30894772517522
CAS-2T
1 41847U 16066G   25289.45855197  .00002654  00000-0  38154-3 0  9994
2 41847  98.4097   2.7578 0345370 148.3269 213.9220 14.43893603469613
CAS-4B
1 42759U 17034B   25286.97241530  .03437790  89859-5  10544-2 0  9999
2 42759  42.9888 273.3261 0008257 129.3938 230.7682 16.25684504462550
CAS-4A
1 42761U 17034D   25281.34159269  .04203186  90411-5  12507-2 0  9993
2 42761  42.9927 303.5081 0008135  81.2710 278.9099 16.26032227461692
TechnoSat
1 42829U 17042E   25289.60962148  .00006661  00000-0  50117-3 0  9997
2 42829  97.4004  92.3142 0018260 204.5784 155.4573 15.02719002450094
AO-91
1 43017U 17073E   25289.18027154  .00010183  00000-0  49280-3 0  9996
2 43017  97.5025 156.7414 0167926  87.4657 274.5782 15.07112834428563
S-Net D
1 43186U 18014G   25289.57797208  .00006907  00000-0  39098-3 0  9991
2 43186  97.5482 191.1730 0010187 131.2379 228.9731 15.13315027421876
S-Net B
1 43187U 18014H   25289.58513345  .00007062  00000-0  39979-3 0  9992
2 43187  97.5489 191.1579 0011013 127.8214 232.4016 15.13292424421874
S-Net A
1 43188U 18014J   25289.57790231  .00006909  00000-0  39094-3 0  9990
2 43188  97.5495 191.3185 0010853 128.3369 231.8839 15.13320278421870
S-Net C
1 43189U 18014K   25289.58788786  .00007039  00000-0  39844-3 0  9992
2 43189  97.5514 191.3644 0012518 122.9468 237.2968 15.13285960420424
Ten-Koh
1 43677U 18084G   25289.60133676  .00003555  00000-0  28137-3 0  9998
2 43677  98.0719 106.9685 0008878 187.4118 172.6975 15.01272517379590
PO-101
1 43678U 18084H   25289.58760209  .00004340  00000-0  36318-3 0  9997
2 43678  98.1074 110.7481 0007375 201.3740 158.7174 14.99007616379702
QO-100
1 43700U 18090A   25289.48959240  .00000132  00000-0  00000-0 0  9995
2 43700   0.0189 237.5135 0002062  10.5061 339.3123  1.00272934 25237
MinXSS-2
1 43758U 18099A   25289.10179130  .00029017  00000-0  97627-3 0  9995
2 43758  97.4882 355.8319 0011402  67.1257 293.1186 15.30689602376597
AO-95
1 43770U 18099N   25289.42253167  .00013368  00000-0  62274-3 0  9999
2 43770  97.4771 346.1848 0011470 120.7988 239.4377 15.19967004376104
SNUSat 2
1 43782U 18099AA  25289.55580730  .00011141  00000-0  56899-3 0  9998
2 43782  97.4455 341.9758 0012880  70.5054 289.7570 15.16790690376038
SnugLite
1 43784U 18099AC  25289.55530949  .00013868  00000-0  63996-3 0  9991
2 43784  97.4267 341.8389 0004657  76.9416 283.2338 15.20333016376216
ITASat 1
1 43786U 18099AE  25289.58243788  .00008904  00000-0  48146-3 0  9993
2 43786  97.4421 341.1100 0015225 117.9447 242.3328 15.14806636375970
EAGLET 1
1 43790U 18099AJ  25289.14534712  .00005760  00000-0  35483-3 0  9997
2 43790  97.4624 340.1690 0013348 106.5610 253.7087 15.10286544375461
ESEO
1 43792U 18099AL  25289.37231988  .00002067  00000-0  15695-3 0  9993
2 43792  97.4342 331.8831 0014822  85.8226 274.4694 15.03153171375166
JO-97
1 43803U 18099AX  25289.42298008  .00017155  00000-0  70283-3 0  9996
2 43803  97.4518 347.5068 0007989  62.0535 298.1511 15.24323577376373
Suomi 100
1 43804U 18099AY  25289.40178525  .00013829  00000-0  61994-3 0  9999
2 43804  97.4580 346.3690 0012764  63.3978 296.8564 15.21266716376262
ISAT
1 43879U 18111D   25289.58579736  .00034858  00000-0  97925-3 0  9992
2 43879  97.5873 207.2567 0011027  97.4525 262.7971 15.36392173373450
UWE-4
1 43880U 18111E   25289.50034349  .00025430  00000-0  85605-3 0  9990
2 43880  97.5819 204.6192 0013474 110.1483 250.1208 15.30675922373310
Sparrow
1 43881U 18111F   25289.51388455  .00037777  00000-0  10036-2 0  9994
2 43881  97.6046 210.6196 0008809 120.3740 239.8376 15.38131395373555
Prox-1
1 44339U 19036A   25289.15388729  .00015150  00000-0  17852-2 0  9998
2 44339  23.9969 295.5262 0007412 105.0142 255.1177 14.83045796337100
Taurus 1
1 44530U 19059C   25289.67101792  .00010133  00000-0  17830-2 0  9998
2 44530  98.6202  75.4516 0008697 354.8474   5.2638 14.67783383322863
Duchifat 3
1 44854U 19089C   25289.24797948  .00153154  00000-0  14504-2 0  9993
2 44854  36.9344 248.7436 0009234 237.1975 122.7899 15.65489477323037
TO-108
1 44881U 19093C   25289.59968038  .00001554  00000-0  18409-3 0  9991
2 44881  97.7818   2.4984 0014105 162.5147 197.6557 14.85903497315235
FloripaSat 1
1 44885U 19093G   25289.63495512  .00008657  00000-0  69741-3 0  9998
2 44885  97.8090  17.5940 0010889 145.9596 214.2328 15.00127369316089
RS-44
1 44909U 19096E   25289.31736785  .00000025  00000-0  58173-4 0  9992
2 44909  82.5197 141.7709 0217493 354.8490   5.0373 12.79744559271155
UPMSat 2
1 46276U 20061E   25284.11510829  .12115553  24945-5  13983-3 0  9991
2 46276  97.2106   5.1352 0012001 257.8540 102.1421 16.49625583285008
